Find Orbcomm Q1

NORAD ID: 33064 Int'l Des: 2008-031 Owner: ORBC Country: US Constellation: orbcomm operational
LEOCIRCULAR

現在のビュー

3D地球を読み込み中...

About Orbcomm Q1

Orbcomm Q1 (NORAD 33064) is a orbcomm constellation satellite launched Jun 19, 2008 by ORBC of US. It operates in LEO, CIRCULAR orbit with a mass of 115.00 kg.

Orbcomm Q1について

説明を読み込み中...

次回通過

Passes for default location (London). Set your location on the main map for personalized predictions.

高度履歴

Loading altitude history...

軌道要素

1 33064U 08031E 26194.28215499 .00000494 00000-0 89846-4 0 9996
2 33064 48.4396 281.8418 0005772 258.6755 141.1421 14.81383435972005
Epoch: Jul 13, 2026 • Age: 20 hours

現在のステータス

高度 633.1 km
遠地点 / 近地点 N/A
速度 7.55 km/s
衛星直下点 44.91°N, 12.49°E
打ち上げ日 Jun 19, 2008
運用期間 18 years
タイプ other

技術仕様

分類 Payload
質量 115.00 kg
乾燥質量 115.00 kg
総質量 115.00 kg
長さ 1.40 m
直径 0.60 m
スパン 1.50 m
形状 Box + Ant
製造者 OHB/POLK
バスタイプ Sterkh
フェーズステータス In Orbit
所有者/国 ORBC/US

Most Searched